Kalnciems

Latvia     56˚47′56″N   23˚36′54″E
temp.,
°C
wind,
m/s
gust,
m/s
humid.,
%
clouds,
%
prec.,
mm/h
press.,
hPa
HPBL,
m
1 december, tue
tue123:00+1˚ssw379896 0.2 1018447
02:00+1˚ssw479798 0.4 1019313
05:00+1˚ssw499199 0.1 1020451
08:00+2˚ssw488999 0.1 1022551
11:00ssw4982100 0.0 1024559
14:00+1˚ssw3787100 0.0 1026574
17:00s3684100 0.0 1026623
20:00−1˚sse2691100 0.0 1028242
2 december, wed
wed223:00−2˚sse3790100 0.0 1029279
02:00−2˚sse3691100 0.0 1030264
05:00−3˚se25940 0.0 1030195
08:00−3˚sse379129 0.0 1030281
11:00−2˚sse368418 0.0 1030333
14:00−2˚sse378010 0.0 1028392
17:00−3˚se38880 0.0 1027356
20:00−3˚se49903 0.0 1026418
3 december, thu
thu323:00−3˚se388815 0.0 1025426
02:00−4˚se389212 0.0 1024364
05:00−4˚se389380 0.0 1021377
08:00−3˚se499279 0.0 1021453
11:00−3˚sse5108777 0.0 1020557
14:00−1˚sse598387 0.1 1019769
17:00−1˚se51080100 0.0 1017858
20:00−1˚se51281100 0.0 1017836
4 december, fri
fri423:00−1˚se51381100 0.0 1016760
02:00se61385100 0.1 1014793
05:00+1˚sse61486100 0.1 1013791
08:00+1˚se61484100 0.2 1012771
11:00+1˚se71482100 0.0 1012787
14:00+3˚se6148599 0.0 1012868
17:00+3˚se71485100 0.0 1011931
20:00+4˚se71585100 0.0 10111026
5 december, sat
sat523:00+5˚se71585100 0.0 1011932
02:00+4˚sse71586100 0.0 1011917
05:00+4˚sse71586100 0.0 1011904
08:00+5˚sse71486100 0.0 1012858
11:00+5˚sse71585100 0.0 1013854
14:00+6˚sse71486100 0.0 1013818
17:00+6˚sse61485100 0.0 1014814
20:00+6˚sse61486100 0.0 1015777